This demonstration page uses our WeatherBlox Daily Observations layout. Learn more.

Left ArrowRight Arrow

Hourly Observations for October 3, 2015

Temp ( °F °C ) Dew Point ( °F °C ) Humidity (%) Winds ( mph kmh ) Pressure ( in mb ) Visibility ( mi km ) Precip ( " mm )
2:15 am 02:15 Cloudy with Drizzle 48 9 48 9 100 100 NNE 12 19 30.15 1021 4 6 N/A
2:35 am 02:35 Cloudy with Light Rain 48 9 48 9 100 100 N 10 17 30.15 1021 4 6 N/A
2:55 am 02:55 Cloudy with Rain 48 9 48 9 100 100 NNE 10 17 30.15 1021 4 6 N/A
3:15 am 03:15 Cloudy with Rain 48 9 48 9 100 100 NNE 9 15 30.15 1021 4 6 N/A
3:35 am 03:35 Cloudy with Light Rain 48 9 48 9 100 100 NNE 10 17 30.15 1021 5 8 N/A
3:55 am 03:55 Cloudy with Rain 48 9 48 9 100 100 NNE 10 17 30.15 1021 7 11 N/A
4:15 am 04:15 Cloudy with Rain 48 9 48 9 100 100 NNE 9 15 30.15 1021 7 11 N/A
5:35 am 05:35 Cloudy with Light Rain 46 8 46 8 100 100 N 8 13 30.15 1021 10 16 N/A
5:55 am 05:55 Cloudy with Rain 46 8 46 8 100 100 NNE 9 15 30.15 1021 10 16 N/A
6:15 am 06:15 Cloudy with Rain 48 9 48 9 100 100 NNE 10 17 30.15 1021 10 16 N/A
6:35 am 06:35 Cloudy with Rain 48 9 48 9 100 100 NNE 9 15 30.15 1021 5 8 N/A
6:55 am 06:55 Cloudy with Rain 48 9 48 9 100 100 N 8 13 30.15 1021 7 11 N/A
7:15 am 07:15 Cloudy with Rain 48 9 48 9 100 100 N 8 13 30.15 1021 7 11 N/A
7:35 am 07:35 Cloudy with Drizzle 48 9 48 9 100 100 N 7 11 30.18 1022 10 16 N/A
7:55 am 07:55 Cloudy 48 9 48 9 100 100 N 8 13 30.18 1022 10 16 N/A
8:15 am 08:15 Cloudy with Light Rain 48 9 48 9 100 100 N 8 13 30.18 1022 4 6 N/A
8:35 am 08:35 Cloudy with Light Rain 48 9 48 9 100 100 N 8 13 30.18 1022 5 8 N/A
8:55 am 08:55 Cloudy with Light Rain 50 10 50 10 100 100 NNE 9 15 30.18 1022 5 8 N/A
9:15 am 09:15 Cloudy 50 10 50 10 100 100 NNE 8 13 30.18 1022 7 11 N/A
9:35 am 09:35 Cloudy with Mist and Fog 50 10 50 10 100 100 NNE 9 15 30.18 1022 3 5 N/A
9:55 am 09:55 Cloudy with Mist and Fog 50 10 50 10 100 100 NNE 10 17 30.18 1022 2 3 N/A
10:35 am 10:35 Cloudy with Mist and Fog 50 10 50 10 100 100 NNE 6 9 30.18 1022 3 5 N/A
10:55 am 10:55 Cloudy with Light Rain 50 10 50 10 100 100 NNE 8 13 30.18 1022 2 3 N/A
11:15 am 11:15 Cloudy with Drizzle 52 11 52 11 100 100 NNE 12 19 30.15 1021 2 3 N/A
11:35 am 11:35 Cloudy with Mist and Fog 52 11 52 11 100 100 NNE 8 13 30.15 1021 2 3 N/A
11:55 am 11:55 Cloudy with Mist and Fog 52 11 52 11 100 100 N 8 13 30.15 1021 2 3 N/A
12:15 pm 12:15 Cloudy with Mist and Fog 52 11 52 11 100 100 NNE 7 11 30.15 1021 2 3 N/A
12:35 pm 12:35 Cloudy with Mist and Fog 52 11 52 11 100 100 NNE 12 19 30.15 1021 3 4 N/A
12:55 pm 12:55 Cloudy with Mist and Fog 54 12 54 12 100 100 NNE 9 15 30.15 1021 4 6 N/A
1:15 pm 13:15 Cloudy with Mist and Fog 54 12 54 12 100 100 NNE 9 15 30.15 1021 3 5 N/A
1:35 pm 13:35 Cloudy with Mist and Fog 54 12 54 12 100 100 NNE 9 15 30.15 1021 3 4 N/A
1:55 pm 13:55 Cloudy with Mist and Fog 54 12 54 12 100 100 NNE 8 13 30.15 1021 3 4 N/A
2:15 pm 14:15 Cloudy with Mist and Fog 54 12 54 12 100 100 NNE 10 17 30.15 1021 3 4 N/A
2:35 pm 14:35 Cloudy with Mist and Fog 54 12 54 12 100 100 NNE 8 13 30.15 1021 3 5 N/A
2:55 pm 14:55 Cloudy with Mist and Fog 54 12 54 12 100 100 NNE 8 13 30.15 1021 3 5 N/A
3:15 pm 15:15 Cloudy with Mist and Fog 54 12 54 12 100 100 NNE 9 15 30.15 1021 4 6 N/A
3:35 pm 15:35 Cloudy with Mist and Fog 54 12 54 12 100 100 NNE 9 15 30.15 1021 3 5 N/A
3:55 pm 15:55 Cloudy with Mist and Fog 54 12 54 12 100 100 NNE 8 13 30.15 1021 4 6 N/A
4:15 pm 16:15 Cloudy with Mist and Fog 54 12 54 12 100 100 NNE 8 13 30.15 1021 5 8 N/A
4:35 pm 16:35 Cloudy 54 12 54 12 100 100 NNE 9 15 30.15 1021 7 11 N/A
4:55 pm 16:55 Cloudy 54 12 54 12 100 100 NNE 7 11 30.15 1021 7 11 N/A
5:15 pm 17:15 Cloudy with Light Rain 55 13 55 13 100 100 NNE 8 13 30.15 1021 7 11 N/A
5:35 pm 17:35 Cloudy with Light Rain 55 13 55 13 100 100 NNE 8 13 30.15 1021 7 11 N/A
5:55 pm 17:55 Cloudy 55 13 55 13 100 100 NNE 9 15 30.15 1021 10 16 N/A
6:15 pm 18:15 Cloudy with Mist and Fog 54 12 54 12 100 100 NNE 9 15 30.18 1022 5 8 N/A
6:35 pm 18:35 Cloudy 54 12 54 12 100 100 NNE 9 15 30.18 1022 7 11 N/A
6:55 pm 18:55 Cloudy 54 12 54 12 100 100 NE 8 13 30.18 1022 10 16 N/A
7:15 pm 19:15 Cloudy 55 13 55 13 100 100 NNE 12 19 30.18 1022 7 11 N/A
7:35 pm 19:35 Cloudy 54 12 54 12 100 100 NE 15 24 30.18 1022 7 11 N/A
7:55 pm 19:55 Cloudy 54 12 54 12 100 100 NNE 9 15 30.18 1022 10 16 N/A
8:15 pm 20:15 Cloudy 54 12 54 12 100 100 NNE 8 13 30.18 1022 10 16 N/A
8:35 pm 20:35 Cloudy 54 12 54 12 100 100 NNE 9 15 30.21 1023 10 16 N/A
8:55 pm 20:55 Cloudy with Light Rain 54 12 54 12 100 100 NNE 13 20 30.21 1023 7 11 N/A
9:15 pm 21:15 Cloudy 54 12 54 12 100 100 NNE 8 13 30.21 1023 7 11 N/A
9:35 pm 21:35 Cloudy with Mist and Fog 54 12 54 12 100 100 NE 10 17 30.21 1023 5 8 N/A
9:55 pm 21:55 Cloudy with Drizzle 54 12 54 12 100 100 NNE 8 13 30.21 1023 5 8 N/A
10:15 pm 22:15 Cloudy with Mist and Fog 54 12 54 12 100 100 NNE 9 15 30.24 1024 4 6 N/A
10:35 pm 22:35 Cloudy with Mist and Fog 54 12 54 12 100 100 NNE 9 15 30.21 1023 3 5 N/A
10:55 pm 22:55 Cloudy with Mist and Fog 54 12 54 12 100 100 NNE 8 13 30.21 1023 3 5 N/A
11:15 pm 23:15 Cloudy with Mist and Fog 54 12 54 12 100 100 NNE 9 15 30.21 1023 3 5 N/A
11:35 pm 23:35 Cloudy with Mist and Fog 54 12 54 12 100 100 NNE 10 17 30.21 1023 4 6 N/A
11:55 pm 23:55 Cloudy with Mist and Fog 52 11 52 11 100 100 NNE 8 13 30.24 1024 4 6 N/A

Powered by AerisWeather